FJI913 NFTF-NFFN

Flight info

Callsign FJI913
Flight time 1h 14m
Altitude 36000
Route ANGOR1Q HOBAT B598 SUGNI DCT ISTOS DCT MI
Aircraft MD11/H-SDE1E2E3FGHIJ2J3J4J5M1RWXY/LB1D1

Departure

Time 2026-04-20 15:39
Airport Fua'amotu International Airport (NFTF)

Arrival

Time 2026-04-20 16:53
Airport Nadi International Airport (NFFN)
Time Latitude Longitude Altitude Speed Heading
2026-04-20 15:32 -21.24184 -175.14264 100 ft 0 kts 82°
2026-04-20 15:37 -21.24184 -175.14258 100 ft 3 kts 88°
2026-04-20 15:37 -21.24209 -175.14230 102 ft 10 kts 150°
2026-04-20 15:37 -21.24298 -175.14247 103 ft 19 kts 211°
2026-04-20 15:38 -21.24413 -175.14323 108 ft 9 kts 223°
2026-04-20 15:38 -21.24427 -175.14374 111 ft 9 kts 278°
2026-04-20 15:38 -21.24319 -175.14595 110 ft 89 kts 302°
2026-04-20 15:38 -21.23786 -175.15493 316 ft 176 kts 304°
2026-04-20 15:39 -21.23083 -175.16689 1358 ft 200 kts 306°
2026-04-20 15:39 -21.22374 -175.17875 3016 ft 171 kts 305°
2026-04-20 15:39 -21.21744 -175.18964 4221 ft 187 kts 304°
2026-04-20 15:39 -21.20965 -175.20298 4453 ft 232 kts 304°
2026-04-20 15:40 -21.20068 -175.21844 4843 ft 249 kts 303°
2026-04-20 15:40 -21.19150 -175.23433 5619 ft 252 kts 303°
2026-04-20 15:40 -21.18226 -175.25043 6493 ft 255 kts 303°
2026-04-20 15:40 -21.17287 -175.26677 7250 ft 259 kts 302°
2026-04-20 15:41 -21.16346 -175.28313 8006 ft 263 kts 302°
2026-04-20 15:41 -21.15382 -175.29994 8757 ft 266 kts 301°
2026-04-20 15:41 -21.14491 -175.31745 9460 ft 270 kts 297°
2026-04-20 15:41 -21.13639 -175.33553 10076 ft 277 kts 297°
2026-04-20 15:42 -21.12738 -175.35473 10204 ft 299 kts 297°
2026-04-20 15:42 -21.11776 -175.37508 10504 ft 310 kts 297°
2026-04-20 15:42 -21.10795 -175.39570 11043 ft 312 kts 297°
2026-04-20 15:42 -21.09797 -175.41655 11653 ft 315 kts 297°
2026-04-20 15:43 -21.08757 -175.43819 12043 ft 344 kts 297°
2026-04-20 15:43 -21.07629 -175.46159 12782 ft 358 kts 297°
2026-04-20 15:43 -21.06476 -175.48547 13811 ft 363 kts 297°
2026-04-20 15:43 -21.05304 -175.50972 14717 ft 368 kts 298°
2026-04-20 15:44 -21.04118 -175.53422 15606 ft 373 kts 297°
2026-04-20 15:44 -21.02929 -175.55877 16470 ft 378 kts 297°
2026-04-20 15:44 -21.01709 -175.58395 17316 ft 383 kts 297°
2026-04-20 15:44 -21.00474 -175.60942 18158 ft 388 kts 297°
2026-04-20 15:45 -20.99224 -175.63518 18865 ft 392 kts 297°
2026-04-20 15:45 -20.97958 -175.66127 19556 ft 396 kts 297°
2026-04-20 15:45 -20.96677 -175.68764 20245 ft 400 kts 297°
2026-04-20 15:45 -20.95404 -175.71384 20914 ft 404 kts 297°
2026-04-20 15:46 -20.94099 -175.74068 21604 ft 408 kts 297°
2026-04-20 15:46 -20.92785 -175.76771 22306 ft 412 kts 297°
2026-04-20 15:46 -20.91450 -175.79513 23020 ft 417 kts 297°
2026-04-20 15:46 -20.90103 -175.82279 23695 ft 422 kts 297°
2026-04-20 15:47 -20.88740 -175.85079 24321 ft 426 kts 297°
2026-04-20 15:47 -20.87364 -175.87901 24965 ft 430 kts 297°
2026-04-20 15:47 -20.85975 -175.90750 25625 ft 434 kts 297°
2026-04-20 15:47 -20.84573 -175.93624 26265 ft 438 kts 296°
2026-04-20 15:48 -20.83158 -175.96523 26916 ft 442 kts 296°
2026-04-20 15:48 -20.81729 -175.99450 27550 ft 447 kts 296°
2026-04-20 15:48 -20.80282 -176.02409 28182 ft 451 kts 296°
2026-04-20 15:48 -20.78825 -176.05390 28804 ft 455 kts 296°
2026-04-20 15:49 -20.77349 -176.08404 29402 ft 460 kts 296°
2026-04-20 15:49 -20.75855 -176.11440 29957 ft 465 kts 296°
2026-04-20 15:49 -20.74342 -176.14514 30396 ft 469 kts 296°
2026-04-20 15:49 -20.72821 -176.17605 30977 ft 469 kts 296°
2026-04-20 15:50 -20.71325 -176.20649 31603 ft 467 kts 296°
2026-04-20 15:50 -20.69819 -176.23715 32241 ft 465 kts 296°
2026-04-20 15:50 -20.68319 -176.26769 32890 ft 463 kts 296°
2026-04-20 15:50 -20.66824 -176.29811 33503 ft 461 kts 296°
2026-04-20 15:51 -20.65334 -176.32842 34083 ft 459 kts 296°
2026-04-20 15:51 -20.63851 -176.35859 34566 ft 458 kts 296°
2026-04-20 15:51 -20.62373 -176.38862 34916 ft 456 kts 296°
2026-04-20 15:51 -20.60902 -176.41852 35262 ft 454 kts 296°
2026-04-20 15:52 -20.59437 -176.44826 35609 ft 452 kts 296°
2026-04-20 15:52 -20.57979 -176.47785 35833 ft 451 kts 296°
2026-04-20 15:52 -20.56514 -176.50756 35884 ft 450 kts 296°
2026-04-20 15:53 -20.52139 -176.59619 35896 ft 449 kts 297°
2026-04-20 15:53 -20.49243 -176.65479 35909 ft 449 kts 297°
2026-04-20 15:54 -20.46325 -176.71377 35900 ft 449 kts 297°
2026-04-20 15:54 -20.43402 -176.77278 35897 ft 451 kts 297°
2026-04-20 15:55 -20.40463 -176.83205 35899 ft 453 kts 297°
2026-04-20 15:55 -20.37511 -176.89137 35892 ft 453 kts 297°
2026-04-20 15:56 -20.34551 -176.95066 35896 ft 453 kts 297°
2026-04-20 15:56 -20.31622 -177.00942 35892 ft 451 kts 297°
2026-04-20 15:57 -20.28684 -177.06842 35900 ft 451 kts 297°
2026-04-20 15:57 -20.25739 -177.12751 35897 ft 451 kts 297°
2026-04-20 15:58 -20.22796 -177.18648 35897 ft 451 kts 297°
2026-04-20 15:58 -20.19851 -177.24542 35899 ft 451 kts 297°
2026-04-20 15:59 -20.16923 -177.30450 35887 ft 451 kts 294°
2026-04-20 15:59 -20.15106 -177.36828 35901 ft 451 kts 282°
2026-04-20 16:00 -20.13826 -177.43369 35896 ft 452 kts 283°
2026-04-20 16:00 -20.12368 -177.49835 35889 ft 451 kts 285°
2026-04-20 16:01 -20.10769 -177.56301 35891 ft 452 kts 285°
2026-04-20 16:01 -20.09132 -177.62766 35894 ft 453 kts 285°
2026-04-20 16:02 -20.07493 -177.69232 35891 ft 453 kts 285°
2026-04-20 16:02 -20.05854 -177.75704 35879 ft 452 kts 285°
2026-04-20 16:03 -20.04216 -177.82164 35879 ft 452 kts 285°
2026-04-20 16:03 -20.02576 -177.88621 35881 ft 452 kts 285°
2026-04-20 16:04 -20.00935 -177.95074 35888 ft 452 kts 285°
2026-04-20 16:04 -19.99291 -178.01528 35885 ft 452 kts 285°
2026-04-20 16:05 -19.97645 -178.07978 35886 ft 452 kts 285°
2026-04-20 16:05 -19.95997 -178.14420 35885 ft 451 kts 286°
2026-04-20 16:06 -19.94343 -178.20825 35885 ft 451 kts 286°
2026-04-20 16:06 -19.92683 -178.27264 35876 ft 451 kts 285°
2026-04-20 16:07 -19.91027 -178.33708 35876 ft 451 kts 285°
2026-04-20 16:07 -19.89371 -178.40143 35876 ft 451 kts 285°
2026-04-20 16:08 -19.87713 -178.46579 35879 ft 451 kts 286°
2026-04-20 16:08 -19.86064 -178.52969 35884 ft 451 kts 285°
2026-04-20 16:09 -19.84401 -178.59401 35876 ft 451 kts 285°
2026-04-20 16:09 -19.82734 -178.65843 35885 ft 451 kts 285°
2026-04-20 16:10 -19.81079 -178.72222 35884 ft 451 kts 285°
2026-04-20 16:10 -19.79411 -178.78644 35875 ft 451 kts 286°
2026-04-20 16:11 -19.78019 -178.83998 35889 ft 453 kts 286°
2026-04-20 16:11 -19.76342 -178.90433 35877 ft 452 kts 285°
2026-04-20 16:12 -19.74662 -178.96871 35889 ft 452 kts 285°
2026-04-20 16:12 -19.72973 -179.03300 35876 ft 452 kts 285°
2026-04-20 16:13 -19.71280 -179.09720 35889 ft 452 kts 285°
2026-04-20 16:13 -19.69593 -179.16144 35885 ft 452 kts 285°
2026-04-20 16:14 -19.67916 -179.22527 35880 ft 452 kts 285°
2026-04-20 16:14 -19.66224 -179.28962 35882 ft 452 kts 286°
2026-04-20 16:15 -19.64531 -179.35390 35880 ft 452 kts 286°
2026-04-20 16:15 -19.62847 -179.41774 35882 ft 452 kts 286°
2026-04-20 16:16 -19.61148 -179.48203 35880 ft 452 kts 286°
2026-04-20 16:16 -19.59449 -179.54624 35886 ft 452 kts 286°
2026-04-20 16:17 -19.57748 -179.61043 35889 ft 452 kts 286°
2026-04-20 16:17 -19.56055 -179.67421 37312 ft 455 kts 285°
2026-04-20 16:18 -19.55182 -179.70703 36927 ft 469 kts 285°
2026-04-20 16:18 -19.54284 -179.74083 35129 ft 483 kts 285°
2026-04-20 16:18 -19.53383 -179.77464 35419 ft 468 kts 285°
2026-04-20 16:18 -19.52506 -179.80752 35742 ft 461 kts 285°
2026-04-20 16:19 -19.50766 -179.87249 35867 ft 456 kts 285°
2026-04-20 16:19 -19.49036 -179.93680 35876 ft 456 kts 285°
2026-04-20 16:20 -19.47301 179.99851 35876 ft 456 kts 284°
2026-04-20 16:20 -19.45566 179.93378 35869 ft 456 kts 284°
2026-04-20 16:21 -19.43838 179.86938 35871 ft 457 kts 284°
2026-04-20 16:21 -19.42096 179.80457 35891 ft 457 kts 284°
2026-04-20 16:22 -19.40352 179.73977 35872 ft 457 kts 284°
2026-04-20 16:22 -19.38603 179.67492 35875 ft 457 kts 284°
2026-04-20 16:23 -19.36865 179.61056 35888 ft 457 kts 284°
2026-04-20 16:23 -19.35110 179.54567 35878 ft 458 kts 285°
2026-04-20 16:24 -19.33354 179.48084 35875 ft 458 kts 285°
2026-04-20 16:24 -19.31596 179.41605 35876 ft 458 kts 285°
2026-04-20 16:25 -19.29837 179.35130 35873 ft 458 kts 285°
2026-04-20 16:25 -19.28069 179.28651 35873 ft 458 kts 285°
2026-04-20 16:26 -19.26291 179.22177 35878 ft 457 kts 285°
2026-04-20 16:26 -19.24522 179.15718 35879 ft 456 kts 285°
2026-04-20 16:27 -19.22769 179.09308 35871 ft 456 kts 285°
2026-04-20 16:27 -19.21006 179.02866 35878 ft 456 kts 285°
2026-04-20 16:28 -19.19236 178.96408 35867 ft 456 kts 285°
2026-04-20 16:28 -19.17466 178.89962 35862 ft 456 kts 285°
2026-04-20 16:29 -19.15693 178.83515 35865 ft 456 kts 285°
2026-04-20 16:29 -19.13922 178.77084 35867 ft 455 kts 285°
2026-04-20 16:30 -19.12158 178.70691 35867 ft 455 kts 285°
2026-04-20 16:30 -19.10384 178.64268 35873 ft 455 kts 285°
2026-04-20 16:31 -19.08606 178.57839 35532 ft 456 kts 285°
2026-04-20 16:31 -19.07721 178.54644 34999 ft 452 kts 285°
2026-04-20 16:31 -19.06837 178.51453 34504 ft 453 kts 285°
2026-04-20 16:32 -19.05951 178.48259 34023 ft 453 kts 285°
2026-04-20 16:32 -19.05021 178.45071 33496 ft 454 kts 288°
2026-04-20 16:32 -19.03772 178.41990 32909 ft 457 kts 297°
2026-04-20 16:32 -19.01989 178.39202 32343 ft 461 kts 308°
2026-04-20 16:33 -18.99763 178.36720 31781 ft 466 kts 314°
2026-04-20 16:33 -18.97388 178.34441 31229 ft 468 kts 316°
2026-04-20 16:33 -18.94922 178.32168 30659 ft 470 kts 316°
2026-04-20 16:33 -18.92466 178.29885 30079 ft 471 kts 315°
2026-04-20 16:34 -18.90025 178.27566 29337 ft 472 kts 315°
2026-04-20 16:34 -18.87613 178.25229 28631 ft 468 kts 314°
2026-04-20 16:34 -18.85237 178.22898 27970 ft 463 kts 314°
2026-04-20 16:34 -18.82895 178.20584 27321 ft 458 kts 314°
2026-04-20 16:35 -18.80580 178.18292 26692 ft 454 kts 314°
2026-04-20 16:35 -18.78294 178.16027 26054 ft 449 kts 314°
2026-04-20 16:35 -18.76025 178.13781 25421 ft 445 kts 314°
2026-04-20 16:35 -18.73779 178.11560 24805 ft 441 kts 314°
2026-04-20 16:36 -18.71576 178.09382 24214 ft 436 kts 314°
2026-04-20 16:36 -18.69366 178.07201 23605 ft 433 kts 314°
2026-04-20 16:36 -18.67177 178.05041 22924 ft 428 kts 314°
2026-04-20 16:36 -18.65012 178.02905 22279 ft 423 kts 314°
2026-04-20 16:37 -18.62874 178.00796 21668 ft 419 kts 314°
2026-04-20 16:37 -18.60756 177.98707 21085 ft 415 kts 314°
2026-04-20 16:37 -18.58656 177.96638 20497 ft 411 kts 314°
2026-04-20 16:37 -18.56576 177.94588 19922 ft 407 kts 314°
2026-04-20 16:38 -18.54514 177.92558 19362 ft 403 kts 314°
2026-04-20 16:38 -18.52477 177.90552 18809 ft 400 kts 314°
2026-04-20 16:38 -18.50451 177.88558 18243 ft 396 kts 315°
2026-04-20 16:38 -18.48474 177.86613 17656 ft 392 kts 315°
2026-04-20 16:39 -18.46486 177.84658 17137 ft 389 kts 315°
2026-04-20 16:39 -18.44521 177.82725 16608 ft 386 kts 315°
2026-04-20 16:39 -18.42564 177.80802 16063 ft 383 kts 315°
2026-04-20 16:39 -18.40629 177.78902 15508 ft 380 kts 315°
2026-04-20 16:40 -18.38700 177.77011 14944 ft 377 kts 315°
2026-04-20 16:40 -18.36784 177.75136 14397 ft 374 kts 315°
2026-04-20 16:40 -18.34888 177.73279 13841 ft 371 kts 316°
2026-04-20 16:40 -18.33005 177.71434 13243 ft 368 kts 316°
2026-04-20 16:41 -18.31140 177.69607 12670 ft 365 kts 315°
2026-04-20 16:41 -18.29290 177.67794 12222 ft 362 kts 315°
2026-04-20 16:41 -18.27451 177.65991 11847 ft 360 kts 315°
2026-04-20 16:41 -18.25625 177.64202 11490 ft 358 kts 315°
2026-04-20 16:42 -18.23820 177.62434 11206 ft 345 kts 315°
2026-04-20 16:42 -18.22116 177.60769 11058 ft 320 kts 315°
2026-04-20 16:42 -18.20574 177.59264 11017 ft 286 kts 315°
2026-04-20 16:42 -18.19163 177.57886 11011 ft 271 kts 315°
2026-04-20 16:43 -18.17782 177.56532 10919 ft 271 kts 315°
2026-04-20 16:43 -18.16413 177.55191 10576 ft 267 kts 315°
2026-04-20 16:43 -18.15053 177.53859 10161 ft 266 kts 315°
2026-04-20 16:43 -18.13701 177.52534 9582 ft 264 kts 315°
2026-04-20 16:44 -18.12362 177.51224 9014 ft 261 kts 315°
2026-04-20 16:44 -18.11052 177.49943 8498 ft 259 kts 315°
2026-04-20 16:44 -18.09737 177.48657 8008 ft 256 kts 316°
2026-04-20 16:44 -18.08436 177.47385 7533 ft 254 kts 316°
2026-04-20 16:45 -18.07142 177.46120 7087 ft 253 kts 316°
2026-04-20 16:45 -18.05860 177.44867 6639 ft 250 kts 316°
2026-04-20 16:45 -18.04589 177.43626 6197 ft 248 kts 316°
2026-04-20 16:45 -18.03334 177.42400 5741 ft 246 kts 316°
2026-04-20 16:46 -18.02083 177.41180 5317 ft 244 kts 316°
2026-04-20 16:46 -18.00844 177.39970 4921 ft 242 kts 317°
2026-04-20 16:46 -17.99625 177.38780 4574 ft 241 kts 316°
2026-04-20 16:46 -17.98402 177.37588 4205 ft 239 kts 316°
2026-04-20 16:47 -17.97187 177.36402 3839 ft 235 kts 317°
2026-04-20 16:47 -17.96032 177.35276 3568 ft 217 kts 317°
2026-04-20 16:47 -17.94990 177.34261 3497 ft 192 kts 316°
2026-04-20 16:47 -17.94017 177.33417 3493 ft 173 kts 325°
2026-04-20 16:48 -17.92941 177.32884 3265 ft 170 kts 342°
2026-04-20 16:48 -17.91811 177.32766 2909 ft 165 kts 360°
2026-04-20 16:48 -17.90690 177.33061 2608 ft 169 kts 21°
2026-04-20 16:48 -17.89676 177.33707 2341 ft 170 kts 30°
2026-04-20 16:49 -17.88694 177.34414 2149 ft 171 kts 30°
2026-04-20 16:49 -17.87719 177.35123 2022 ft 170 kts 30°
2026-04-20 16:49 -17.86746 177.35835 2008 ft 170 kts 31°
2026-04-20 16:49 -17.85769 177.36555 2011 ft 171 kts 31°
2026-04-20 16:50 -17.84799 177.37271 1999 ft 171 kts 30°
2026-04-20 16:50 -17.83833 177.37985 2013 ft 163 kts 31°
2026-04-20 16:50 -17.82949 177.38644 1819 ft 152 kts 30°
2026-04-20 16:50 -17.82102 177.39269 1617 ft 144 kts 30°
2026-04-20 16:51 -17.81281 177.39849 1205 ft 144 kts 30°
2026-04-20 16:51 -17.80424 177.40453 907 ft 146 kts 32°
2026-04-20 16:51 -17.79632 177.41056 653 ft 145 kts 36°
2026-04-20 16:51 -17.78796 177.41709 462 ft 152 kts 36°
2026-04-20 16:52 -17.77959 177.42360 254 ft 148 kts 37°
2026-04-20 16:52 -17.77129 177.43024 84 ft 150 kts 37°
2026-04-20 16:52 -17.76385 177.43615 48 ft 109 kts 39°
2026-04-20 16:52 -17.75908 177.44001 51 ft 68 kts 37°
2026-04-20 16:53 -17.75632 177.44224 50 ft 32 kts 38°
2026-04-20 16:53 -17.75518 177.44318 53 ft 19 kts 38°
2026-04-20 16:53 -17.75406 177.44412 48 ft 21 kts 38°
2026-04-20 16:53 -17.75296 177.44503 48 ft 21 kts 38°
2026-04-20 16:54 -17.75182 177.44597 49 ft 21 kts 38°
2026-04-20 16:54 -17.75116 177.44680 48 ft 11 kts 81°
2026-04-20 16:54 -17.75128 177.44767 50 ft 14 kts 103°
2026-04-20 16:54 -17.75151 177.44864 52 ft 13 kts 104°
2026-04-20 16:55 -17.75169 177.44938 52 ft 7 kts 104°
2026-04-20 16:55 -17.75181 177.44987 53 ft 7 kts 104°
2026-04-20 16:55 -17.75186 177.45008 50 ft 4 kts 104°
2026-04-20 16:55 -17.75188 177.45016 52 ft 0 kts 104°